Regional Weather Roundup
Issued by NWS

Home | Current Version | Previous Version | Text Only | Print | Product List | Glossary Off
Versions: 1 2 3 4 5 6 7 8 9 10 11 12 13 14 15 16 17 18 19 20 21 22 23 24 25 26 27 28 29 30 31 32 33 34 35 36 37 38 39 40 41 42 43 44 45 46 47 48 49 50

000
ASUS43 KMKX 211200
RWRWI

WISCONSIN REGIONAL WEATHER ROUNDUP
NATIONAL WEATHER SERVICE MILWAUKEE/SULLIVAN WI
700 AM CDT SAT OCT 21 2017

NOTE: "FAIR" INDICATES FEW OR NO CLOUDS BELOW 12,000 FEET WITH NO
SIGNIFICANT WEATHER AND/OR OBSTRUCTIONS TO VISIBILITY.

WIZ001-002-006>008-014>016-023>028-211300-
NORTHWEST WISCONSIN

CITY           SKY/WX    TMP DP  RH WIND       PRES   REMARKS
SUPERIOR ARPT  PTCLDY    62  51  67 S10       29.67F
ASHLAND        PTCLDY    63  47  55 S10G21    29.72F
6HR MIN TEMP:  63; 6HR MAX TEMP:  67; 6HR PCP: TRACE;

HAYWARD        MOCLDY    61  48  62 S10G18    29.75S
6HR MIN TEMP:  59; 6HR MAX TEMP:  64; 6HR PCP: TRACE;

SIREN          MOCLDY    62  50  64 S15G23    29.70F
CUMBERLAND     CLOUDY    59  48  67 SE9       29.75S
RICE LAKE      CLOUDY    59  48  66 SE10      29.77S
CHETEK         CLOUDY    59  49  70 SE10G17   29.77S
LADYSMITH      CLEAR     60  48  65 SE8       29.82S
EAU CLAIRE     NOT AVBL
MENOMONIE      MOCLDY    60  51  70 E8        29.77S
NEW RICHMOND   MOCLDY    61  50  66 S14G20    29.71F
OSCEOLA        CLOUDY    62  52  69 SE16      29.73S
$$

WIZ003>005-009-010-017-018-211300-
NORTH CENTRAL WISCONSIN

CITY           SKY/WX    TMP DP  RH WIND       PRES   REMARKS
MANITOWISH WTR PTCLDY    58  46  65 S12G17    29.84S
ARBOR VITAE    CLOUDY    60  47  61 S10G18    29.85S
WOODRUFF       CLOUDY    60  47  61 S10G18    29.85S
RHINELANDER    CLOUDY    59  46  62 S8        29.89S
6HR MIN TEMP:  59; 6HR MAX TEMP:  63;

EAGLE RIVER    NOT AVBL
LAND O LAKES   MOCLDY    59  45  58 S8        29.88S
PHILLIPS       CLEAR     58  47  66 S13G20    29.82S
TOMAHAWK       CLEAR     56  46  66 S3        29.88S
MEDFORD        CLEAR     56  46  70 SE10      29.86S
MERRILL        CLEAR     58  46  65 SE7       29.89S
$$

WIZ029-030-035-036-043>047-211300-
CENTRAL WISCONSIN

CITY           SKY/WX    TMP DP  RH WIND       PRES   REMARKS
WAUSAU         CLEAR     56  46  69 SE6       29.88F
6HR MIN TEMP:  56; 6HR MAX TEMP:  63;

MOSINEE        PTCLDY    55  48  76 SE9       29.90F
MARSHFIELD     PTCLDY    57  47  69 S8        29.86F
6HR MIN TEMP:  57; 6HR MAX TEMP:  64;

STEVENS POINT  PTCLDY    56  46  70 S6        29.91S
WAUPACA        CLEAR     57  48  72 SE5       29.93S
WAUTOMA        PTCLDY    58  50  75 S6        29.93S
6HR MIN TEMP:  58; 6HR MAX TEMP:  66;

WISC RAPIDS    PTCLDY    60  49  66 S10       29.90F
6HR MIN TEMP:  60; 6HR MAX TEMP:  66;

CAMP DOUGLAS   NOT AVBL
$$

WIZ011>013-019>022-031-037>040-048>050-211300-
NORTHEAST WISCONSIN

CITY           SKY/WX    TMP DP  RH WIND       PRES   REMARKS
ANTIGO         CLEAR     52  46  80 SE9       29.93S
SHAWANO        MOCLDY    62  48  59 S3        29.93S
OCONTO         CLOUDY    59  51  74 SE5       29.95R
STURGEON BAY   PTCLDY    57  52  83 S12       29.98S
6HR MIN TEMP:  56; 6HR MAX TEMP:  59;

GREEN BAY      PTCLDY    60  50  69 S9        29.96S
6HR MIN TEMP:  60; 6HR MAX TEMP:  66;

MANITOWOC      CLOUDY    57  51  80 S7        29.99F
6HR MIN TEMP:  53; 6HR MAX TEMP:  57;

APPLETON       MOCLDY    59  45  58 S9        29.94S
CLINTONVILLE   NOT AVBL
OSHKOSH        PTCLDY    59  49  69 S15       29.94F
6HR MIN TEMP:  57; 6HR MAX TEMP:  63;

$$

WIZ032>034-041-042-053>061-211300-
SOUTHWEST WISCONSIN

CITY           SKY/WX    TMP DP  RH WIND       PRES   REMARKS
LA CROSSE      MOCLDY    65  52  62 S12       29.83R
6HR MIN TEMP:  64; 6HR MAX TEMP:  67; 6HR PCP: TRACE;

SPARTA         PTCLDY    62  51  68 S8G16     29.86S
VIROQUA        CLEAR     60  51  73 S13       29.87F
BOSCOBEL       MOCLDY    65  51  60 S6G17     29.90R
6HR MIN TEMP:  63; 6HR MAX TEMP:  67;

PRAIRIE DU CHI MOCLDY    63  49  60 SE10G17   29.86S
PLATTEVILLE    CLOUDY    61  52  72 S14       29.93R
$$

WIZ056-057-062-063-064-067-068-211300-
SOUTH CENTRAL WISCONSIN

CITY           SKY/WX    TMP DP  RH WIND       PRES   REMARKS
REEDSBURG      PTCLDY    60  50  69 S13       29.91S
BARABOO/DELLS  PTCLDY    59  48  67 S13       29.92S
LONE ROCK      NOT AVBL
MINERAL POINT  CLOUDY    59  52  77 SE13      29.93S
MADISON        MOCLDY    58  50  75 S10       29.95S
6HR MIN TEMP:  58; 6HR MAX TEMP:  64; 6HR PCP: TRACE;

MIDDLETON      PTCLDY    62  50  66 S14       29.94F
WATERTOWN      PTCLDY    58  51  78 S6        29.98S
MONROE         PTCLDY    59  48  67 S16       29.96S
JANESVILLE     PTCLDY    61  50  67 S12G17    29.98S
$$

WIZ051-052-058>065-066-070>072-211300-
SOUTHEAST WISCONSIN

CITY           SKY/WX    TMP DP  RH WIND       PRES   REMARKS
MILWAUKEE      CLOUDY    61  50  67 S10       30.01F
6HR MIN TEMP:  61; 6HR MAX TEMP:  66; 6HR PCP: TRACE;

WAUKESHA       CLEAR     59  46  63 S8        30.01F
MILWAUKEE/TIMM CLOUDY    61  45  55 S5        30.01S
RACINE         PTCLDY    59  50  72 S7        30.04S
6HR MIN TEMP:  59; 6HR MAX TEMP:  66;

BURLINGTON     MOCLDY    59  51  74 S6        30.01F
KENOSHA        PTCLDY    62  48  60 S9        30.03S
6HR MIN TEMP:  60; 6HR MAX TEMP:  66;

FOND DU LAC    PTCLDY    61  47  59 S10       29.95F
6HR MIN TEMP:  61; 6HR MAX TEMP:  66;

SHEBOYGAN      CLOUDY    58  50  75 S9        29.98F
6HR MIN TEMP:  55; 6HR MAX TEMP:  63;

WEST BEND      PTCLDY    59  45  58 S7        29.99F
JUNEAU         PTCLDY    58  49  72 SE10      29.97F
$$

LSZ147-162-211300-
LAKE SUPERIOR

STATION/POSITION TIME  TEMP    WIND        PRES    WAVE
                       AIR SEA DIR/SP/G            HT/PER
                 (UTC) (F)     (DEG/KT/KT) (MB)    (FT/S)
W MID LAKE BUOY  1050   58 52              1007.1F   1/ 4
DEVILS ISLAND    1100   63     170/  5/  7 1006.6F
SAXON HARBOR     1140   66     190/ 10/ 21 1006.8S
$$

LMZ867-665-643>646-211300-
LAKE MICHIGAN

STATION/POSITION TIME  TEMP    WIND        PRES    WAVE
                       AIR SEA DIR/SP/G            HT/PER
                 (UTC) (F)     (DEG/KT/KT) (MB)    (FT/S)
S GREEN BAY BUOY 1130   60 58  170/ 10/ 12 1014.3R
N MID LAKE BUOY  1050   61 58  180/ 17/ 21 1015.5F   5/ 6
NORTHPORT PIER   1140   58     170/  8/ 16 1014.9S
KEWAUNEE LAKESHO 1130   53     180/ 10/ 11 1014.9R
SHEBOYGAN LAKESH 1100   55     180/ 17/ 17 1015.4F
PORT WASHINGTON  1140   55     190/  5/  7 1016.9F
ATWATER BUOY     1009   56 53  150/  8/ 10 1016.5R
MILWAUKEE LAKESH 1130   60     170/  7/  7   N/A
S MID LAKE BUOY  1050   62 61  180/ 16/ 19 1017.9R   2/ 4
KENOSHA   LAKESH 1100   58     180/ 11/ 14 1016.6
$$

TC  - TEMPERATURE IN CELSIUS
VSB - VISIBILITY IN STATUTE MILES
WCI - WIND CHILL INDEX
HX  - HEAT INDEX




USA.gov is the U.S. government's official web portal to all federal, state and local government web resources and services.